Regional Weather Roundup
Issued by NWS

Home | Current Version | Previous Version | Text Only | Print | Product List | Glossary Off
Versions: 1 2 3 4 5 6 7 8 9 10 11 12 13 14 15 16 17 18 19 20 21 22 23 24 25 26 27 28 29 30 31 32 33 34 35 36 37 38 39 40 41 42 43 44 45 46 47 48 49 50

000
ASUS45 KPSR 071800
RWRAZ

ARIZONA HOURLY REGIONAL WEATHER ROUNDUP
NATIONAL WEATHER SERVICE PHOENIX AZ
1100 AM MST TUE JUL 07 2015

NOTE: FAIR INDICATES FEW OR NO CLOUDS BELOW 12,000 FEET WITH NO
SIGNIFICANT WEATHER AND/OR OBSTRUCTIONS TO VISIBILITY.

AZZ001>003-036-071900-
NORTHWEST ARIZONA

CITY           SKY/WX    TMP DP  RH WIND       PRES   REMARKS
BULLHEAD CITY  MOSUNNY   99  52  20 MISG      29.85S
KINGMAN        SUNNY     92  48  22 NW7       30.04F
6HR MIN TEMP:  65; 6HR MAX TEMP:  93;

$$

AZZ004>008-015-016-018-071900-
NORTH CENTRAL ARIZONA

CITY           SKY/WX    TMP DP  RH WIND       PRES   REMARKS
GRAND CANYON   MOSUNNY   73  46  38 VRB6G16   30.27R
6HR MIN TEMP:  45; 6HR MAX TEMP:  74; 6HR PCP: TRACE;

WILLIAMS       PTSUNNY   70  46  43 CALM      30.35S
PRESCOTT       LGT RAIN  76  56  49 NE3       30.18S
6HR MIN TEMP:  60; 6HR MAX TEMP:  79; 6HR PCP: TRACE;

FLAGSTAFF      NOT AVBL
PAYSON         MOSUNNY   84  50  30 SW12G18   30.19S
PAGE           MOSUNNY   79  50  36 VRB3      30.10
6HR MIN TEMP:  65; 6HR MAX TEMP:  81;

$$

AZZ009>014-017-071900-
NORTHEAST ARIZONA

CITY           SKY/WX    TMP DP  RH WIND       PRES   REMARKS
WINSLOW        NOT AVBL
SAINT JOHNS    MOSUNNY   81  47  30 W10       30.19F
6HR MIN TEMP:  58; 6HR MAX TEMP:  81;

WINDOW ROCK    MOSUNNY   80  46  30 MISG      30.25S
6HR MIN TEMP:  50; 6HR MAX TEMP:  80;

SHOW LOW       SUNNY     75  45  33 N3        30.26S
$$

AZZ023-071900-
GREATER PHOENIX AREA

CITY           SKY/WX    TMP DP  RH WIND       PRES   REMARKS
PHOENIX        MOSUNNY   97  58  27 CALM      29.88F
6HR MIN TEMP:  85; 6HR MAX TEMP: 100;

GLENDALE       MOSUNNY   97  54  23 CALM      29.90F
LUKE AFB       SUNNY     99  46  16 S1        29.87F
DEER VALLEY    SUNNY     95  51  22 VRB3      29.90F
6HR MIN TEMP:  80; 6HR MAX TEMP:  95;

SCOTTSDALE     SUNNY     96  56  26 VRB6      29.92F
6HR MIN TEMP:  82; 6HR MAX TEMP:  96;

MESA-GATEWAY   MOSUNNY   93  59  31 CALM      29.93F
CHANDLER       MOSUNNY   97  61  30 NE6       29.90F
$$

AZZ027-028-071900-
SOUTHWEST MARICOPA COUNTY AND PINAL COUNTY

CITY           SKY/WX    TMP DP  RH WIND       PRES   REMARKS
CASA GRANDE    SUNNY     97  55  24 CALM      29.90F
6HR MIN TEMP:  77; 6HR MAX TEMP:  97;

$$

AZZ503-504-507>509-071900-
SOUTHEAST ARIZONA

CITY           SKY/WX    TMP DP  RH WIND       PRES   REMARKS
TUCSON         MOSUNNY   94  59  31 CALM      30.01F
6HR MIN TEMP:  77; 6HR MAX TEMP:  94;

DAVIS-MONTHAN  SUNNY     90  60  36 CALM      29.99F
6HR MIN TEMP:  74; 6HR MAX TEMP:  90;

RYAN FIELD     SUNNY     93  61  33 SE5       30.00F
NOGALES        SUNNY     85  61  44 VRB5      30.10F
6HR MIN TEMP:  66; 6HR MAX TEMP:  86;

SAFFORD        SUNNY     92  57  30 NW6       29.99F
6HR MIN TEMP:  76; 6HR MAX TEMP:  93;

$$

AZZ020-021-025-026-031-071900-
SOUTHWEST ARIZONA

CITY           SKY/WX    TMP DP  RH WIND       PRES   REMARKS
YUMA           SUNNY    100  52  19 S12       29.82S
6HR MIN TEMP:  83; 6HR MAX TEMP: 100;

$$

CAZ031-033-041-043-047-048-061-071900-
SOUTHERN CALIFORNIA

CITY           SKY/WX    TMP DP  RH WIND       PRES   REMARKS
DOWNTOWN L.A.  CLOUDY    68  60  75 CALM      29.98F
6HR MIN TEMP:  66; 6HR MAX TEMP:  69;

L.A. AIRPORT   CLOUDY    67  61  81 CALM      30.00S
6HR MIN TEMP:  64; 6HR MAX TEMP:  67;

SAN DIEGO      CLOUDY    67  59  75 VRB3      30.00F
6HR MIN TEMP:  64; 6HR MAX TEMP:  67; 6HR PCP: TRACE;

BURBANK        PTSUNNY   71  59  65 VRB3      29.98F
6HR MIN TEMP:  64; 6HR MAX TEMP:  71;

ONTARIO        CLOUDY    69  59  70 W6        29.99F HAZE
6HR MIN TEMP:  64; 6HR MAX TEMP:  69;

RIVERSIDE        N/A     68  59  73 VRB3      30.00  HAZE
PALM SPRINGS   MOSUNNY   99  54  22 NE6       29.84F
6HR MIN TEMP:  79; 6HR MAX TEMP:  99;

EL CENTRO NAS  MOSUNNY   97  58  27 N6        29.81F
6HR MIN TEMP:  77; 6HR MAX TEMP:  98;

IMPERIAL       SUNNY     96  57  27 NW6       29.79F
6HR MIN TEMP:  80; 6HR MAX TEMP:  97;

BLYTHE         SUNNY    100  42  13 S9        29.82F
6HR MIN TEMP:  83; 6HR MAX TEMP: 100;

$$

NVZ020-UTZ003-071900-
SOUTHERN NEVADA-UTAH

CITY           SKY/WX    TMP DP  RH WIND       PRES   REMARKS
LAS VEGAS      NOT AVBL
SALT LAKE CITY MOSUNNY   83  54  36 CALM      30.04F
6HR MIN TEMP:  66; 6HR MAX TEMP:  83;

$$

NMZ009-TXZ055-071900-
NEW MEXICO-WEST TEXAS

CITY           SKY/WX    TMP DP  RH WIND       PRES   REMARKS
ALBUQUERQUE    MOSUNNY   73  56  54 VRB7      30.22F
6HR MIN TEMP:  62; 6HR MAX TEMP:  74;

EL PASO        MOSUNNY   87  59  38 CALM      30.07F
6HR MIN TEMP:  74; 6HR MAX TEMP:  87;

$$


........................KEY........................
SKY/WX - SKY CONDITION/WEATHER
TMP    - TEMPERATURE IN FAHRENHEIT
DP     - DEW POINT IN FAHRENHEIT
RH     - RELATIVE HUMIDITY IN PERCENT
WIND   - DIRECTION AND SPEED IN MILES PER HOUR (MPH)
VRB    - VARIABLE WIND DIRECTION
PRES   - MEAN SEA LEVEL PRESSURE IN INCHES OF MERCURY
         F - FALLING PRESSURE   R - RISING PRESSURE
         S - STEADY PRESSURE
VSB    - VISIBILITY IN MILES
HX     - HEAT INDEX IN FAHRENHEIT
WCI    - WIND CHILL INDEX IN FAHRENHEIT
TC     - TEMPERATURE IN CELSIUS WHICH IS ALSO KNOWN AS
         TEMPERATURE IN CENTIGRADE
AFB    - AIR FORCE BASE
         LUKE AFB IS LUKE AIR FORCE BASE
         DAVIS-MONTHAN IS DAVIS-MONTHAN AIR FORCE BASE
NAS    - NAVAL AIR STATION
         EL CENTRO NAS IS EL CENTRO NAVAL AIR STATION
N/A    - NOT AVAILABLE



USA.gov is the U.S. government's official web portal to all federal, state and local government web resources and services.